Monarch Pass, CO

10:57 PM MST on December 11, 2017 (GMT -0700)
Monarch Pass

Weather History for KMYP - November, 2012

Change the Weather History Date:

Thursday, November 29, 2012

  Actual Average (KALS) Record (KALS)
Temperature  
Mean Temperature 26 °F -  
Max Temperature 32 °F 38 °F 62 °F (1942)
Min Temperature 21 °F 3 °F -27 °F (1952)
Degree Days  
Heating Degree Days 38    
Moisture  
Dew Point 18 °F    
Average Humidity 74    
Maximum Humidity 93    
Minimum Humidity 48    
Precipitation  
Precipitation 0.00 in - - ()
Sea Level Pressure  
Sea Level Pressure 30.37 in    
Wind  
Wind Speed 38 mph (West)    
Max Wind Speed 47 mph    
Max Gust Speed 56 mph    
Averages and records for this station are not official NWS values.
T = Trace of Precipitation, MM = Missing Value Source: NWS Daily Summary

Daily Weather History Graph

Daily Weather History Graph

Search for Another Location

Airport or City:

Trip Planner

Search our weather history database for the weather conditions in past years. The results will help you decide how hot, cold, wet, or windy it might be!

Date:

Astronomy

Nov. 29, 2012 Rise Set
Actual Time 7:01 AM MST 4:45 PM MST
Civil Twilight 6:32 AM MST 5:14 PM MST
Nautical Twilight 5:59 AM MST 5:46 PM MST
Astronomical Twilight 5:27 AM MST 6:18 PM MST
Moon 5:50 PM MST (11/29) 7:50 AM MST (11/29)
Length of Visible Light 10h 41m
Length of Day
9h 43m
Full, 99% of the Moon is Illuminated
Nov 29
Full
Dec 6
Last Quarter
Dec 13
New
Dec 19
First Quarter
Dec 28
Full

Hourly Weather History & Observations

Time (MST) Temp. Windchill Dew Point Humidity Pressure Visibility Wind Dir Wind Speed Gust Speed Precip Events Conditions
12:15 AM 23.0 °F 3.4 °F 17.6 °F 80% 30.40 in - West 39.1 mph 44.9 mph N/A   Clear
12:35 AM 23.0 °F 3.9 °F 17.6 °F 80% 30.40 in - West 36.8 mph - N/A   Clear
12:55 AM 23.0 °F - 17.6 °F 80% 30.39 in - North - - N/A   Clear
1:15 AM 23.0 °F - 17.6 °F 80% 30.38 in - North - - N/A   Clear
1:35 AM 23.0 °F 2.2 °F 17.6 °F 80% 30.37 in - West 46.0 mph - N/A   Scattered Clouds
1:55 AM 23.0 °F 2.6 °F 17.6 °F 80% 30.37 in - West 43.7 mph 48.3 mph N/A   Mostly Cloudy
2:15 AM 24.8 °F 5.7 °F 19.4 °F 80% 30.38 in - West 40.3 mph 49.5 mph N/A   Mostly Cloudy
2:35 AM 23.0 °F 2.6 °F 17.6 °F 80% 30.37 in - West 43.7 mph 50.6 mph N/A   Overcast
2:55 AM 23.0 °F 2.4 °F 19.4 °F 86% 30.36 in - West 44.9 mph 48.3 mph N/A   Scattered Clouds
3:15 AM 24.8 °F 4.6 °F 19.4 °F 80% 30.36 in - West 47.2 mph 52.9 mph N/A   Mostly Cloudy
3:35 AM 24.8 °F - 19.4 °F 80% 30.36 in - North - - N/A   Overcast
3:55 AM 24.8 °F 6.0 °F 19.4 °F 80% 30.36 in - West 39.1 mph - N/A   Overcast
4:15 AM 24.8 °F 6.2 °F 19.4 °F 80% 30.36 in - West 38.0 mph 42.6 mph N/A   Overcast
4:35 AM 24.8 °F 6.4 °F 19.4 °F 80% 30.37 in - West 36.8 mph 44.9 mph N/A   Overcast
4:55 AM 24.8 °F 6.0 °F 19.4 °F 80% 30.35 in - West 39.1 mph 46.0 mph N/A   Overcast
5:15 AM 24.8 °F - 17.6 °F 74% 30.34 in - North - - N/A   Overcast
5:35 AM 23.0 °F 3.2 °F 17.6 °F 80% 30.34 in - West 40.3 mph - N/A   Overcast
5:55 AM 24.8 °F 5.5 °F 19.4 °F 80% 30.34 in - West 41.4 mph 49.5 mph N/A   Overcast
6:15 AM 24.8 °F 5.1 °F 19.4 °F 80% 30.34 in - West 43.7 mph 54.1 mph N/A   Overcast
6:35 AM 23.0 °F 2.8 °F 19.4 °F 86% 30.34 in - West 42.6 mph - N/A   Overcast
6:55 AM 23.0 °F - 17.6 °F 80% 30.36 in - North - - N/A   Mostly Cloudy
7:15 AM 23.0 °F 2.6 °F 17.6 °F 80% 30.34 in - West 43.7 mph - N/A   Overcast
7:35 AM 23.0 °F - 19.4 °F 86% 30.35 in - North - - N/A   Overcast
7:55 AM 23.0 °F - 19.4 °F 86% 30.34 in - North - - N/A   Overcast
8:15 AM 24.8 °F 4.9 °F 19.4 °F 80% 30.35 in - West 44.9 mph 56.4 mph N/A   Overcast
8:35 AM 23.0 °F 2.6 °F 17.6 °F 80% 30.36 in - West 43.7 mph 52.9 mph N/A   Overcast
9:15 AM 23.0 °F - 17.6 °F 80% 30.36 in - North - - N/A   Clear
9:35 AM 24.8 °F 6.0 °F 19.4 °F 80% 30.37 in - West 39.1 mph - N/A   Clear
9:55 AM 24.8 °F 4.8 °F 19.4 °F 80% 30.37 in - West 46.0 mph 50.6 mph N/A   Clear
10:15 AM 26.6 °F 8.1 °F 19.4 °F 74% 30.37 in - West 41.4 mph 50.6 mph N/A   Clear
10:55 AM 26.6 °F 7.9 °F 19.4 °F 74% 30.37 in - West 42.6 mph 46.0 mph N/A   Clear
11:15 AM 28.4 °F 10.8 °F 19.4 °F 69% 30.37 in - West 40.3 mph 47.2 mph N/A   Clear
11:35 AM 28.4 °F 11.6 °F 19.4 °F 69% 30.37 in - West 35.7 mph 44.9 mph N/A   Clear
11:55 AM 28.4 °F 11.4 °F 19.4 °F 69% 30.36 in - West 36.8 mph 50.6 mph N/A   Clear
12:15 PM 30.2 °F 14.7 °F 19.4 °F 64% 30.36 in - WSW 32.2 mph 46.0 mph N/A   Clear
12:35 PM 30.2 °F 14.7 °F 19.4 °F 64% 30.36 in - WSW 32.2 mph 46.0 mph N/A   Clear
12:55 PM 30.2 °F 14.1 °F 19.4 °F 64% 30.36 in - West 35.7 mph 43.7 mph N/A   Clear
1:15 PM 32.0 °F 16.5 °F 17.6 °F 55% 30.36 in - WSW 35.7 mph 41.4 mph N/A   Clear
1:35 PM 32.0 °F 15.8 °F 17.6 °F 55% 30.35 in - West 40.3 mph 48.3 mph N/A   Clear
1:55 PM 32.0 °F 16.2 °F 17.6 °F 55% 30.35 in - West 38.0 mph 48.3 mph N/A   Clear
2:15 PM 32.0 °F 15.4 °F 15.8 °F 51% 30.35 in - West 42.6 mph 49.5 mph N/A   Clear
2:35 PM 32.0 °F 15.6 °F 14.0 °F 48% 30.36 in - West 41.4 mph 52.9 mph N/A   Clear
2:55 PM 32.0 °F 17.0 °F 14.0 °F 48% 30.37 in - WSW 33.4 mph 43.7 mph N/A   Clear
3:15 PM 32.0 °F 17.4 °F 14.0 °F 48% 30.38 in - WSW 31.1 mph 39.1 mph N/A   Clear
3:35 PM 32.0 °F 17.2 °F 15.8 °F 51% 30.38 in - SW 32.2 mph 40.3 mph N/A   Clear
3:55 PM 32.0 °F 17.4 °F 15.8 °F 51% 30.38 in - SW 31.1 mph 35.7 mph N/A   Clear
4:15 PM 30.2 °F 14.9 °F 17.6 °F 60% 30.38 in - WSW 31.1 mph 38.0 mph N/A   Clear
4:35 PM 30.2 °F 15.4 °F 17.6 °F 60% 30.39 in - WSW 28.8 mph 38.0 mph N/A   Clear
4:55 PM 28.4 °F 13.0 °F 17.6 °F 64% 30.39 in - WSW 28.8 mph 34.5 mph N/A   Clear
5:15 PM 28.4 °F 12.3 °F 17.6 °F 64% 30.40 in - West 32.2 mph 36.8 mph N/A   Clear
5:35 PM 28.4 °F 11.8 °F 17.6 °F 64% 30.39 in - West 34.5 mph - N/A   Clear
5:55 PM 26.6 °F 9.3 °F 17.6 °F 69% 30.39 in - West 34.5 mph - N/A   Clear
6:15 PM 26.6 °F 10.0 °F 17.6 °F 69% 30.39 in - West 31.1 mph 35.7 mph N/A   Clear
6:35 PM 26.6 °F 10.8 °F 17.6 °F 69% 30.39 in - West 27.6 mph - N/A   Clear
6:55 PM 26.6 °F 9.8 °F 17.6 °F 69% 30.39 in - West 32.2 mph - N/A   Clear
7:15 PM 26.6 °F 10.3 °F 17.6 °F 69% 30.40 in - West 29.9 mph - N/A   Clear
7:35 PM 26.6 °F 10.3 °F 17.6 °F 69% 30.39 in - WSW 29.9 mph - N/A   Clear
7:55 PM 24.8 °F 8.1 °F 19.4 °F 80% 30.40 in - WSW 28.8 mph - N/A   Clear
8:15 PM 24.8 °F 7.9 °F 19.4 °F 80% 30.40 in - WSW 29.9 mph - N/A   Clear
8:35 PM 24.8 °F 7.3 °F 17.6 °F 74% 30.39 in - WSW 32.2 mph - N/A   Clear
8:55 PM 24.8 °F 7.3 °F 17.6 °F 74% 30.39 in - WSW 32.2 mph - N/A   Clear
9:15 PM 24.8 °F - 17.6 °F 74% 30.39 in - North - - N/A   Clear
9:35 PM 23.0 °F 4.6 °F 19.4 °F 86% 30.39 in - West 33.4 mph 39.1 mph N/A   Clear
9:55 PM 23.0 °F 4.9 °F 19.4 °F 86% 30.40 in - West 32.2 mph - N/A   Clear
10:15 PM 23.0 °F - 19.4 °F 86% 30.40 in - North - - N/A   Unknown
10:35 PM 23.0 °F - 19.4 °F 86% 30.40 in - North - - N/A   Unknown
10:55 PM 23.0 °F 5.1 °F 19.4 °F 86% 30.40 in - West 31.1 mph - N/A   Unknown
11:15 PM 23.0 °F - 19.4 °F 86% 30.40 in - North - - N/A   Unknown
11:35 PM 21.2 °F 2.7 °F 19.4 °F 93% 30.39 in - WSW 31.1 mph - N/A   Unknown
11:55 PM 21.2 °F - 19.4 °F 93% 30.40 in - North - - N/A   Unknown